Weather History for Bloomington, IN

Change the Weather History Date:

Sunday, May 12, 2013

  Actual Average Record
Temperature  
Mean Temperature 48 °F 61 °F  
Max Temperature 57 °F 72 °F 85 °F (2011)
Min Temperature 38 °F 50 °F 38 °F (2013)
Degree Days  
Heating Degree Days 17 5  
Month to date heating degree days 56 73  
Since 1 July heating degree days 5244 5187  
Cooling Degree Days 0 1  
Month to date cooling degree days 9 12  
Year to date cooling degree days 21 31  
Moisture  
Dew Point 30 °F    
Average Humidity 59    
Maximum Humidity 86    
Minimum Humidity 32    
Precipitation  
Precipitation 0.00 in 0.17 in 1.06 in (2002)
Month to date precipitation 2.28 2.12  
Year to date precipitation 17.68 16.77  
Sea Level Pressure  
Sea Level Pressure 30.11 in    
Wind  
Wind Speed 6 mph (WNW)    
Max Wind Speed 18 mph    
Max Gust Speed 25 mph    
Visibility 10 miles    
Events      
T = Trace of Precipitation, MM = Missing Value Source: NWS Daily Summary

Daily Weather History Graph

Daily Weather History Graph

Search for Another Location

Airport:

Trip Planner

Search our weather history database for the weather conditions in past years. The results will help you decide how hot, cold, wet, or windy it might be!

Date:

Astronomy

May. 12, 2013 Rise Set
Actual Time 6:35 AM EDT 8:50 PM EDT
Civil Twilight 6:06 AM EDT 9:20 PM EDT
Nautical Twilight 5:29 AM EDT 9:57 PM EDT
Astronomical Twilight 4:49 AM EDT 10:37 PM EDT
Moon 8:30 AM EDT (5/12) 11:16 PM EDT (5/12)
Length of Visible Light 15h 14m
Length of Day
14h 14m
Waxing Crescent, 6% of the Moon is Illuminated
May 12
Waxing Crescent
May 18
First Quarter
May 25
Full
May 31
Last Quarter
Jun 8
New

Hourly Weather History & Observations

Time (EDT) Temp. Windchill Dew Point Humidity Pressure Visibility Wind Dir Wind Speed Gust Speed Precip Events Conditions
12:53 AM 48.0 °F - 28.9 °F 48% 30.06 in 10.0 mi WNW 6.9 mph - N/A   Clear
1:53 AM 45.0 °F 42.6 °F 30.0 °F 56% 30.07 in 10.0 mi WNW 4.6 mph - N/A   Clear
2:53 AM 45.0 °F 42.6 °F 28.9 °F 53% 30.07 in 10.0 mi WNW 4.6 mph - N/A   Clear
3:53 AM 43.0 °F 40.3 °F 30.0 °F 60% 30.06 in 10.0 mi WNW 4.6 mph - N/A   Clear
4:53 AM 39.9 °F 36.7 °F 30.9 °F 70% 30.06 in 10.0 mi WNW 4.6 mph - N/A   Clear
5:53 AM 39.0 °F 36.8 °F 30.9 °F 73% 30.07 in 10.0 mi WNW 3.5 mph - N/A   Clear
6:53 AM 39.0 °F 36.8 °F 32.0 °F 76% 30.08 in 10.0 mi West 3.5 mph - N/A   Clear
7:53 AM 42.1 °F 37.7 °F 32.0 °F 67% 30.09 in 10.0 mi WNW 6.9 mph - N/A   Clear
8:53 AM 44.1 °F 40.8 °F 33.1 °F 65% 30.11 in 10.0 mi WNW 5.8 mph - N/A   Clear
9:53 AM 48.0 °F - 30.9 °F 52% 30.12 in 10.0 mi Variable 5.8 mph - N/A   Clear
10:53 AM 50.0 °F - 25.0 °F 38% 30.12 in 10.0 mi NW 10.4 mph 19.6 mph N/A   Clear
11:53 AM 51.1 °F - 27.0 °F 39% 30.13 in 10.0 mi West 8.1 mph 16.1 mph N/A   Partly Cloudy
12:53 PM 53.1 °F - 28.0 °F 38% 30.13 in 10.0 mi Variable 5.8 mph 18.4 mph N/A   Clear
1:53 PM 54.0 °F - 28.0 °F 37% 30.14 in 10.0 mi NNW 10.4 mph 19.6 mph N/A   Clear
2:53 PM 55.0 °F - 28.0 °F 35% 30.13 in 10.0 mi WNW 8.1 mph 21.9 mph N/A   Partly Cloudy
3:53 PM 55.9 °F - 28.0 °F 34% 30.12 in 10.0 mi WNW 12.7 mph 20.7 mph N/A   Partly Cloudy
4:53 PM 54.0 °F - 26.1 °F 34% 30.12 in 10.0 mi WNW 9.2 mph - N/A   Partly Cloudy
5:53 PM 55.0 °F - 27.0 °F 34% 30.11 in 10.0 mi WNW 11.5 mph 18.4 mph N/A   Mostly Cloudy
6:53 PM 55.0 °F - 27.0 °F 34% 30.10 in 10.0 mi NW 6.9 mph - N/A   Scattered Clouds
7:53 PM 54.0 °F - 27.0 °F 35% 30.10 in 10.0 mi West 11.5 mph 17.3 mph N/A   Clear
8:53 PM 50.0 °F - 28.9 °F 44% 30.11 in 10.0 mi Calm Calm - N/A   Scattered Clouds
9:53 PM 43.0 °F 41.3 °F 37.9 °F 82% 30.14 in 10.0 mi SW 3.5 mph - N/A   Clear
10:53 PM 41.0 °F 39.0 °F 37.9 °F 89% 30.15 in 10.0 mi WNW 3.5 mph - N/A   Clear
11:53 PM 41.0 °F - 36.0 °F 82% 30.15 in 10.0 mi Calm Calm - N/A   Clear